Flag for Germany Weather past 2 weeks in Frankfurt, Hesse, Germany

Now
52 °F

Clear.


Feels Like: 49 °F
Forecast: 47 / 67 °F
Wind: 9 mph from Northeast

Location: Frankfurt-M-Flughafen Airport


UV Index: 3 (Moderate)

Visibility: 10 mi


Pressure: 29.77 "Hg

Humidity: 88%

Dew point: 48 °F

Location of FrankfurtLocation

Historic Weather in Frankfurt

°F

Frankfurt temperature yesterday

Maximum temperature yesterday: 64 °F (at 3:50 PM)
Minimum temperature yesterday: 37 °F (at 2:50 AM)
Average temperature yesterday: 51 °F

Past Weeks' High & Low Weather Summary

 TemperatureHumidityPressure
High72 °F (Apr 7, 4:50 PM)100% (Apr 5, 10:50 AM)30.42 "Hg (Apr 5, 10:50 AM)
Low32 °F (Apr 16, 5:20 AM)25% (Apr 17, 5:50 PM)29.77 "Hg (Apr 20, 2:50 AM)
Average54 °F61%30.08 "Hg
* Reported Apr 5 3:20 AM — Apr 20 3:20 AM, Frankfurt, Weather by CustomWeather, © 2014

Note: Actual official high and low records may vary slightly from our data, if they occured in-between our weather recording intervals... More about our weather records

Advertising

Historic Weather Conditions — Data for Previous 24 hours

 ConditionsComfort  
Time TempWeatherWind HumidityBarometerVisibility
3:20 AM
Apr 20
54 °FClear.13 mph82%29.77 "Hg10 mi
2:50 AM54 °FClear.13 mph82%29.77 "Hg10 mi
2:20 AM54 °FClear.13 mph82%29.80 "Hg10 mi
1:50 AM54 °FClear.10 mph82%29.80 "Hg10 mi
1:20 AM54 °FClear.8 mph82%29.80 "Hg10 mi
12:50 AM55 °FClear.7 mph77%29.80 "Hg10 mi
12:20 AM54 °FClear.5 mph82%29.83 "Hg10 mi
11:50 PM
Apr 19
55 °FClear.6 mph77%29.83 "Hg10 mi
11:20 PM55 °FClear.8 mph72%29.83 "Hg10 mi
10:50 PM55 °FClear.13 mph72%29.83 "Hg10 mi
10:20 PM55 °FClear.12 mph72%29.86 "Hg10 mi
9:50 PM57 °FClear.12 mph67%29.86 "Hg10 mi
9:20 PM57 °FSunny.15 mph63%29.86 "Hg10 mi
8:50 PM57 °FSunny.16 mph63%29.83 "Hg10 mi
8:20 PM59 °FSunny.18 mph59%29.83 "Hg10 mi
7:50 PM59 °FSunny.20 mph59%29.83 "Hg10 mi
7:20 PM61 °FSunny.18 mph55%29.83 "Hg10 mi
6:50 PM61 °FSunny.18 mph55%29.83 "Hg10 mi
6:20 PM63 °FSunny.18 mph52%29.83 "Hg10 mi
5:50 PM63 °FSunny.17 mph52%29.83 "Hg10 mi
5:20 PM63 °FSunny.20 mph49%29.83 "Hg10 mi
4:50 PM63 °FSunny.21 mph49%29.83 "Hg10 mi
4:20 PM64 °FSunny.20 mph46%29.83 "Hg10 mi
3:50 PM64 °FSunny.18 mph46%29.86 "Hg10 mi
3:20 PM63 °FSunny.16 mph45%29.86 "Hg10 mi
2:50 PM63 °FSunny.16 mph42%29.89 "Hg10 mi
2:20 PM61 °FPassing clouds.17 mph48%29.89 "HgN/A
1:50 PM61 °FPassing clouds.16 mph48%29.92 "HgN/A
1:20 PM57 °FPassing clouds.16 mph48%29.95 "HgN/A
12:50 PM55 °FPassing clouds.14 mph55%29.95 "HgN/A
12:20 PM55 °FPassing clouds.17 mph51%29.95 "HgN/A
11:50 AM54 °FScattered clouds.15 mph54%29.98 "HgN/A
11:20 AM50 °FScattered clouds.17 mph62%29.98 "HgN/A
10:50 AM50 °FScattered clouds.16 mph62%29.98 "HgN/A
10:20 AM48 °FScattered clouds.15 mph66%30.01 "HgN/A
9:50 AM46 °FPartly sunny.13 mph71%30.01 "HgN/A
9:20 AM45 °FPartly sunny.12 mph76%29.98 "HgN/A
8:50 AM45 °FBroken clouds.13 mph76%30.01 "HgN/A
8:20 AM45 °FScattered clouds.13 mph76%29.98 "HgN/A
7:50 AM43 °FPassing clouds.14 mph81%29.98 "HgN/A
7:20 AM41 °FPassing clouds.14 mph87%29.98 "HgN/A
6:50 AM39 °FClear.10 mph87%29.98 "Hg10 mi
6:20 AM39 °FClear.8 mph87%29.98 "Hg10 mi
5:50 AM39 °FClear.8 mph87%29.98 "Hg10 mi
5:20 AM37 °FClear.10 mph87%29.95 "Hg10 mi
4:50 AM37 °FPassing clouds.7 mph87%29.95 "HgN/A
4:20 AM37 °FPassing clouds.5 mph87%29.95 "HgN/A
Weather by CustomWeather, © 2014

See weather overview